Location: Bambrugge
(50.9212°N, 3.9299°E)
Time: 12:39:36
(UTC+00:00)

Cosmos 1850 Rocket - Pass Details

Date: 23 May 2024
Orbit: 753 x 782 km, 74.0° (Epoch: 18 June)

Event Time Altitude Azimuth Distance (km) Brightness Sun altitude
Exits shadow 01:46:18 18° 195° (SSW) 1,815 5.3 -13.3°
Maximum altitude 01:50:14 77° 112° (ESE) 799 4.1 -13.0°
Drops below altitude 10° 01:55:30 10° 27° (NNE) 2,321 8.0 -12.6°
Sets 01:57:53 0° 26° (NNE) 3,247 9.3 -12.4°
